CAPE
556 324 488 323 394 296 232 163 101 24 68 27 1 0 1 11 52 14 13 0 0 0
166 337 360 212 150 218 89 34 3 2 0 0 0 0 0 0 0 5 2 0 0 0
0 2 1 0 38 12 0 1 1 1 1 1 0 0 1 1 1 1 1 0 0 1
0 0 0 0 0 0 0 1 1 1 1 0 1 1 1 1 1 0 0 1 0 0
1 1 1 1 0 1 1 1 0 1 1 1 1 1 0 0 0 0 0 0 0 0
0 1 0 0 0 1 1 1 1 1 0 1 0 0 0 0 0 0 0 0 0 0
1 0 0 0 1 1 1 1 1 1 0 0 0 0 0 0 0 0 0 0 0 0
0 0 1 1 1 1 0 0 0 0 0 0 0 0 0 0 0 0 0 0 0 0
0 0 0 0 0 0 0 0 0 0 0 0 0 0 0 0 0 0 0 0 0 0
0 0 0 0 0 0 0 0 0 0 0 0 0 0 0 0 0 0 0 0 0 0
0 0 0 0 0 0 0 0 0 0 0 0 0 0 0 0 0 0 0 0 0 0
0 0 0 0 0 0 0 0 0 0 0 0 0 0 0 0 0 0 0 0 0 1
0 0 0 0 0 0 0 0 0 0 0 0 0 1 0 0 0 0 0 0 0 1
0 0 0 0 0 0 0 0 0 0 0 0 0 1 0 0 0 0 0 1 0 0
CIN
-484 -541 -458 -463 -388 -377 -352 -346 -340 -396 -260 -298 -34 -0 -154 -231 -209 -259 -246 -2 -0 -0
-637 -522 -490 -526 -508 -424 -477 -538 -644 -521 -0 -0 -0 -0 -0 -0 -0 -94 -70 -0 -0 -0
-0 -487 -287 -0 -618 -658 -0 -0 -0 -0 -0 -0 -0 -0 -0 -0 -0 -0 -0 -0 -0 -0
-0 -0 -0 -0 -0 -0 -0 -0 -0 -0 -0 -0 -0 -0 -0 -0 -0 -0 -0 -0 -0 -0
-0 -0 -0 -0 -0 -0 -0 -0 -0 -0 -0 -0 -0 -0 -0 -0 -0 -0 -0 -0 -0 -0
-0 -0 -0 -0 -0 -0 -0 -0 -0 -0 -0 -0 -0 -0 -0 -0 -0 -0 -0 -0 -0 -0
-0 -0 -0 -0 -0 -0 -0 -0 -0 -0 -0 -0 -0 -0 -0 -0 -0 -0 -0 -0 -0 -0
-0 -0 -0 -0 -0 -0 -0 -0 -0 -0 -0 -0 -0 -0 -0 -0 -0 -0 -0 -0 -0 -0
-0 -0 -0 -0 -0 -0 -0 -0 -0 -0 -0 -0 -0 -0 -0 -0 -0 -0 -0 -0 -0 -0
-0 -0 -0 -0 -0 -0 -0 -0 -0 -0 -0 -0 -0 -0 -0 -0 -0 -0 -0 -0 -0 -0
-0 -0 -0 -0 -0 -0 -0 -0 -0 -0 -0 -0 -0 -0 -0 -0 -0 -0 -0 -0 -0 -0
-0 -0 -0 -0 -0 -0 -0 -0 -0 -0 -0 -0 -0 -0 -0 -0 -0 -0 -0 -0 -0 -0
-0 -0 -0 -0 -0 -0 -0 -0 -0 -0 -0 -0 -0 -0 -0 -0 -0 -0 -0 -0 -0 -0
-0 -0 -0 -0 -0 -0 -0 -0 -0 -0 -0 -0 -0 -0 -0 -0 -0 -0 -0 -0 -0 -0
Wind_Speed
10 7 8 8 7 8 8 9 9 10 10 12 10 9 9 8 8 8 8 9 7 6
8 8 8 7 6 6 6 5 8 10 10 10 10 10 10 8 7 6 7 9 8 5
7 6 6 5 7 6 4 5 6 7 8 8 8 8 8 6 7 7 4 4 7 5
5 6 6 5 5 5 4 5 6 7 6 8 8 7 6 6 7 8 7 5 6 4
7 6 6 5 5 5 5 5 6 6 6 6 6 7 10 10 6 9 6 6 6 6
7 6 6 6 6 6 6 6 6 7 7 7 7 7 6 6 8 8 8 6 6 6
8 7 7 6 7 7 6 7 6 6 6 7 7 8 7 9 7 7 6 6 5 5
7 8 7 6 6 6 6 5 6 7 7 7 7 5 7 7 7 7 7 6 6 6
9 10 8 7 6 7 6 7 7 8 8 8 6 11 12 7 6 7 7 6 6 6
10 11 11 10 9 8 7 8 9 9 9 10 9 15 14 12 6 7 6 6 5 5
11 10 11 12 11 8 8 9 9 9 9 10 7 15 13 12 7 7 7 6 4 3
12 12 12 13 12 10 10 9 8 8 11 12 7 14 13 10 7 5 4 3 5 4
12 13 12 12 12 6 8 10 10 11 9 11 9 10 11 8 4 3 2 1 1 2
12 12 12 10 11 11 11 10 10 10 7 7 7 6 9 8 3 3 2 2 1 1
Wind_Direction
196 194 200 195 193 197 200 204 198 203 208 211 200 200 200 204 204 189 200 196 192 193
191 194 198 191 191 199 189 180 184 195 199 196 187 188 189 189 178 179 179 194 188 183
181 178 170 163 185 182 167 156 173 191 199 191 190 174 176 179 171 154 166 173 168 160
159 166 161 173 176 176 147 161 175 176 189 184 177 170 181 183 170 153 160 160 142 128
160 157 152 160 163 154 169 168 165 169 170 171 170 175 168 152 173 142 152 132 129 136
155 177 168 157 160 168 167 173 174 171 171 165 162 148 136 133 129 127 133 139 137 147
159 164 182 163 168 169 167 163 163 159 145 139 134 124 119 120 125 110 109 120 115 118
157 156 151 149 147 135 136 128 122 119 112 112 105 103 111 108 112 109 96 76 76 70
169 149 145 138 131 121 115 112 113 102 102 89 80 99 92 100 97 84 91 96 70 56
166 156 148 138 131 127 123 117 106 103 107 104 98 92 89 89 91 95 95 90 78 62
159 156 144 137 132 123 123 117 113 106 101 100 98 99 93 90 91 86 71 73 80 55
158 152 150 140 139 136 128 121 113 118 117 109 93 99 94 88 85 83 80 70 41 37
154 151 150 139 131 120 128 129 126 115 112 115 115 114 105 102 97 80 34 10 137 269
145 137 133 120 123 120 120 117 110 105 99 102 110 108 109 111 120 177 175 91 11 215